Location: Piotrkow Trybunalski
(51.4000°N, 19.6830°E)
Time: 05:30:16
(UTC+02:00)

A-11 Canister half - Pass Details

Date: 30 January 2023
Orbit: 1526 x 1682 km, 47.3° (Epoch: 25 March)

Event Time Altitude Azimuth Distance (km) Brightness Sun altitude
Rises 13:32:20 0° 287° (WNW) 4,749 11.7 17.7°
Reaches altitude 10° 13:36:03 10° 275° (W) 3,785 11.4 17.5°
Maximum altitude 13:43:21 25° 225° (SW) 2,805 12.1 17.0°
Drops below altitude 10° 13:50:49 10° 175° (S) 3,869 12.2 16.4°
Sets 13:54:42 0° 163° (SSE) 4,875 12.3 16.1°
